SCP
0 0 0 0 0 0 0 0 0 0 0 0 0 0 0 0 0 0 0 0 0 1 1 1 1 1 1 0 0 0 0 0 0 0 0 0 0 0 0 0 0 0 0 0 0 0 0 0 0
0 0 0 0 0 0 0 0 0 0 0 0 0 0 0 0 0 0 0 0 0 0 1 1 1 1 1 1 0 0 0 0 0 0 0 0 0 0 0 0 0 0 0 0 0 0 0 0 0
0 0 0 0 0 0 0 0 0 0 0 0 0 0 0 0 0 0 0 0 0 0 1 1 1 1 1 1 0 0 0 0 0 0 0 0 0 0 0 0 0 0 0 0 0 0 0 0 0
0 0 0 0 0 0 0 0 0 0 0 0 0 0 0 0 0 0 0 0 0 1 1 1 1 1 1 1 1 0 0 0 0 0 0 0 0 0 0 0 0 0 0 0 0 0 0 0 0
0 0 0 0 0 0 0 0 0 0 0 0 0 0 0 0 0 0 0 0 0 1 1 1 1 1 1 1 1 0 0 0 0 0 0 0 0 0 0 0 0 0 0 0 0 0 0 0 0
0 0 0 0 0 0 0 0 0 0 0 0 0 0 0 0 0 0 0 0 0 1 1 1 1 1 1 1 1 1 0 0 0 0 0 0 0 0 0 0 0 0 0 0 0 0 0 0 0
0 0 0 0 0 0 0 0 0 0 0 0 0 0 0 0 0 0 0 0 0 1 1 1 1 1 1 1 1 1 0 0 0 0 0 0 0 0 0 0 0 0 0 0 0 0 0 0 0
0 0 0 0 0 0 0 0 0 0 0 0 0 0 0 0 0 0 0 0 1 1 1 1 1 1 1 1 1 0 0 0 0 0 0 0 0 0 0 0 0 0 0 0 0 0 0 0 0
0 0 0 0 0 0 0 0 0 0 0 0 0 0 0 0 0 0 0 0 1 1 1 1 1 0 0 0 0 0 0 0 0 0 0 0 0 0 0 0 0 0 0 0 0 0 0 0 0
0 0 0 0 0 0 0 0 0 0 0 0 0 0 0 0 0 0 0 0 0 1 1 0 0 0 0 0 0 0 0 0 0 0 0 0 0 0 0 0 0 0 0 0 0 0 0 0 0
0 0 0 0 0 0 0 0 0 0 0 0 0 0 0 0 0 0 0 0 0 0 0 0 0 0 0 0 0 0 0 0 0 0 0 0 0 0 0 0 0 0 0 0 0 0 0 0 0
0 0 0 0 0 0 0 0 0 0 0 0 0 0 0 0 0 0 0 0 0 0 0 0 0 0 0 0 0 0 0 0 0 0 0 0 0 0 0 0 0 0 0 0 0 0 0 0 0
0 0 0 0 0 0 0 0 0 0 0 0 0 0 0 0 0 0 0 0 0 0 0 0 0 0 0 0 0 0 0 0 0 0 0 0 0 0 0 0 0 0 0 0 0 0 0 0 0
0 0 0 0 0 0 0 0 0 0 0 0 0 0 0 0 0 0 0 0 0 0 0 0 0 0 0 0 0 0 0 0 0 0 0 0 0 0 0 0 0 0 0 0 0 0 0 0 0
0 0 0 0 0 0 0 0 0 0 0 0 0 0 0 0 0 0 0 0 0 0 0 0 0 0 0 0 0 0 0 0 0 0 0 0 0 0 0 0 0 0 0 0 0 0 0 0 0
0 0 0 0 0 0 0 0 0 0 0 0 0 0 0 0 0 0 0 0 0 0 0 0 0 0 0 0 0 0 0 0 0 0 0 0 0 0 0 0 0 0 0 0 0 0 0 0 0
0 0 0 0 0 0 0 0 0 0 0 0 0 0 0 0 0 0 0 0 0 0 0 0 0 0 0 0 0 0 0 0 0 0 0 0 0 0 0 0 0 0 0 0 0 0 0 0 0
0 0 0 0 0 0 0 0 0 0 0 0 0 0 0 0 0 0 0 0 0 0 0 0 0 0 0 0 0 0 0 0 0 0 0 0 0 0 0 0 0 0 0 0 0 0 0 0 0
0 0 0 0 0 0 0 0 0 0 0 0 0 0 0 0 0 0 0 0 0 0 0 0 0 0 0 0 0 0 0 0 0 0 0 0 0 0 0 0 0 0 0 0 0 0 0 0 0
0 0 0 0 0 0 0 0 0 0 0 0 0 0 0 0 0 0 0 0 0 0 0 0 0 0 0 0 0 0 0 0 0 0 0 0 0 0 0 0 0 0 0 0 0 0 0 0 0
0 0 0 0 0 0 0 0 0 0 0 0 0 0 0 0 0 0 0 0 0 0 0 0 0 0 0 0 0 0 0 0 0 0 0 0 0 0 0 0 0 0 0 0 0 0 0 0 0
0 0 0 0 0 0 0 0 0 0 0 0 0 0 0 0 0 0 0 0 0 0 0 0 0 0 0 0 0 0 0 0 0 0 0 0 0 0 0 0 0 0 0 0 0 0 0 0 0
0 0 0 0 0 0 0 0 0 0 0 0 0 0 0 0 0 0 0 0 0 0 0 0 0 0 0 0 0 0 0 0 0 0 0 0 0 0 0 0 0 0 0 0 0 0 0 0 0
0 0 0 0 0 0 0 0 0 0 0 0 0 0 0 0 0 0 0 0 0 0 0 0 0 0 0 0 0 0 0 0 0 0 0 0 0 0 0 0 0 0 0 0 0 0 0 0 0
0 0 0 0 0 0 0 0 0 0 0 0 0 0 0 0 0 0 0 0 0 0 0 0 0 0 0 0 0 0 0 0 0 0 0 0 0 0 0 0 0 0 0 0 0 0 0 0 0
0 0 0 0 0 0 0 0 0 0 0 0 0 0 0 0 0 0 0 0 0 0 0 0 0 0 0 0 0 0 0 0 0 0 0 0 0 0 0 0 0 0 0 0 0 0 0 0 0
0 0 0 0 0 0 0 0 0 0 0 0 0 0 0 0 0 0 0 0 0 0 0 0 0 0 0 0 0 0 0 0 0 0 0 0 0 0 0 0 0 0 0 0 0 0 0 0 0
0 0 0 0 0 0 0 0 0 0 0 0 0 0 0 0 0 0 0 0 0 0 0 0 0 0 0 0 0 0 0 0 0 0 0 0 0 0 0 0 0 0 0 0 0 0 0 0 0
0 0 0 0 0 0 0 0 0 0 0 0 0 0 0 0 0 0 0 0 0 0 0 0 0 0 0 0 0 0 0 0 0 0 0 0 0 0 0 0 0 0 0 0 0 0 0 0 0
0 0 0 0 0 0 0 0 0 0 0 0 0 0 0 0 0 0 0 0 0 0 0 0 0 0 0 0 0 0 0 0 0 0 0 0 0 0 0 0 0 0 0 0 0 0 0 0 0
Wind_Speed
12 9 5 2 2 5 9 7 4 2 1 1 3 2 2 3 3 5 2 4 5 6 7 7 6 6 6 6 6 6 5 5 5 5 4 5 5 6 6 6 7 7 7 7 7 7 8 8 7
8 7 3 2 4 7 7 7 5 1 0 1 1 2 1 3 4 5 3 3 4 6 6 6 6 6 5 5 5 5 6 5 5 5 4 4 4 5 5 6 6 6 6 6 7 7 7 7 6
7 5 3 3 5 7 5 2 2 1 0 1 0 2 2 2 3 3 3 2 3 5 6 7 6 5 5 4 4 4 5 5 4 4 4 4 4 4 5 5 5 5 5 6 6 6 6 6 5
4 2 3 4 9 7 4 1 1 1 1 2 1 1 3 3 3 4 3 2 3 5 6 6 6 5 4 4 3 3 4 4 4 4 4 4 4 4 4 4 5 5 5 5 5 6 5 5 5
2 2 4 6 9 6 2 1 1 2 1 1 1 1 2 4 6 5 4 3 3 4 5 6 5 5 4 3 3 3 2 3 3 3 4 3 3 4 4 4 4 5 5 5 5 5 5 5 4
2 3 4 7 8 5 2 2 3 2 1 1 2 1 2 4 5 4 3 3 4 4 5 5 4 4 3 2 2 3 2 2 2 2 3 3 3 4 4 4 4 4 4 4 4 5 5 4 3
2 2 5 7 5 3 1 2 3 2 1 2 3 1 2 4 4 3 3 3 4 4 4 3 3 3 3 2 2 2 2 1 2 2 3 2 3 3 4 3 3 4 3 4 4 4 5 4 3
3 2 5 6 6 4 2 3 3 5 3 3 4 1 1 3 4 3 3 3 3 4 4 3 2 2 2 2 2 2 2 1 1 1 2 2 2 2 3 3 3 3 3 3 3 3 4 4 3
3 2 4 5 4 1 2 2 3 3 3 2 3 2 2 2 3 3 3 3 3 4 4 3 2 2 1 1 1 2 2 1 2 2 2 2 2 2 3 3 3 3 3 3 3 3 4 4 3
2 3 4 3 4 2 2 2 2 2 3 1 1 1 1 2 3 3 3 2 2 3 3 3 3 2 1 0 1 1 2 2 2 2 2 1 1 1 2 3 3 3 3 3 3 3 4 3 2
2 3 2 3 5 4 3 2 2 2 3 2 1 1 2 3 3 3 3 3 3 2 3 3 2 1 1 0 1 0 1 1 1 1 1 1 1 1 1 2 2 3 3 2 3 3 2 3 2
2 3 3 2 4 3 3 3 3 3 3 3 2 2 2 2 3 3 3 3 3 3 3 3 3 2 1 0 1 1 1 1 1 1 1 1 1 1 1 1 2 2 2 2 2 2 3 3 3
4 3 2 2 2 3 3 4 4 5 3 3 1 1 0 1 1 2 2 2 2 3 3 2 2 3 2 1 1 0 1 1 1 2 2 1 1 1 1 1 2 2 2 2 3 3 3 3 3
1 1 2 3 4 3 3 5 5 6 2 2 2 2 1 1 0 1 2 3 3 3 3 2 2 2 2 1 1 1 1 1 1 1 2 2 2 2 2 1 2 2 2 2 2 3 3 2 2
2 3 3 4 5 3 3 5 7 6 4 3 3 2 2 1 0 1 1 2 2 3 3 2 1 2 2 1 2 1 1 1 1 1 2 2 2 2 2 1 1 2 2 2 1 2 1 1 2
4 3 3 2 3 3 3 6 4 4 4 4 3 2 2 1 1 1 1 1 2 2 2 2 2 2 2 1 1 1 1 1 1 1 1 2 2 2 2 2 1 2 2 1 1 1 1 1 1
4 4 4 2 3 3 4 6 4 3 3 3 3 3 2 1 1 1 0 0 1 2 2 2 1 1 2 1 1 1 1 1 1 1 1 2 2 2 2 2 1 1 1 1 2 1 1 1 1
3 4 4 3 2 2 4 7 6 4 4 5 4 3 3 3 3 1 0 0 1 1 1 1 2 1 1 1 1 1 1 1 1 1 1 2 1 1 1 1 2 1 1 1 2 2 2 2 2
4 4 5 3 2 3 6 8 8 5 5 5 4 3 2 2 2 2 1 0 1 2 1 1 2 2 1 1 1 1 1 1 1 1 2 2 1 1 1 1 1 1 1 2 3 2 2 2 1
4 5 6 4 2 4 6 9 9 7 6 4 3 3 2 1 1 0 1 1 2 2 1 1 2 2 2 1 1 1 1 2 1 1 1 2 1 1 1 2 2 1 1 2 2 2 2 2 2
4 4 5 4 6 5 6 8 6 4 3 2 2 2 2 2 1 1 1 1 2 2 2 2 2 3 2 2 1 1 1 1 1 1 1 2 2 1 1 1 1 1 1 2 2 2 3 3 3
4 2 3 4 4 3 3 5 4 4 4 4 3 2 1 1 1 1 2 2 2 2 1 2 3 3 3 2 1 2 1 2 2 1 1 1 1 1 0 1 0 1 1 1 2 2 2 3 3
2 2 3 5 4 5 5 5 6 3 4 4 2 1 1 1 1 2 2 2 2 1 1 2 3 3 3 2 2 2 2 2 1 1 1 1 1 1 1 0 0 1 1 1 2 2 3 2 3
2 2 4 4 2 5 7 6 5 3 4 2 1 1 1 1 1 1 1 1 1 1 1 2 2 3 2 2 2 2 3 2 2 2 1 1 1 1 1 1 1 1 1 1 2 2 3 3 3
2 0 1 1 3 6 3 4 5 1 1 1 0 1 1 1 1 1 2 2 2 1 2 2 3 3 3 2 2 2 3 3 3 2 2 1 1 2 1 1 1 1 2 2 2 2 3 3 3
3 2 2 2 3 2 2 5 3 2 2 2 1 1 2 3 2 2 2 3 2 2 2 3 3 4 3 3 3 3 3 2 2 2 2 2 2 2 2 1 2 2 2 2 2 2 3 3 3
1 2 1 1 3 4 5 3 1 2 2 2 2 3 3 4 4 3 4 3 3 3 3 4 4 3 3 3 3 3 3 2 2 2 2 1 1 2 1 1 1 2 2 2 2 2 2 2 2
2 1 1 2 2 4 5 4 3 2 1 1 2 3 3 4 4 4 4 4 4 3 3 3 3 3 2 2 2 2 2 2 2 2 1 1 2 2 2 1 1 2 2 1 1 1 2 2 2
3 2 2 2 2 2 4 3 1 2 1 2 3 4 4 5 5 5 5 4 4 4 3 3 3 2 2 2 2 2 2 1 1 1 1 1 1 1 1 1 1 2 2 1 1 1 1 2 2
2 2 3 3 3 3 3 5 2 3 3 3 4 4 4 5 5 5 5 5 4 4 3 3 2 1 2 1 2 2 1 1 1 1 0 1 1 1 1 1 1 1 2 1 1 1 1 1 1
Wind_Direction
306 283 263 252 230 229 237 244 246 234 277 347 13 337 4 15 28 102 136 75 80 101 115 116 97 93 90 94 92 89 90 95 98 99 116 124 125 122 120 119 117 113 109 107 103 99 94 89 87
299 291 266 234 231 231 232 235 240 260 323 6 17 322 45 59 69 98 90 65 86 106 116 116 100 98 94 95 100 96 90 93 98 101 110 127 130 127 127 122 118 117 112 108 107 103 98 94 91
273 270 246 226 229 237 244 228 155 122 74 290 331 352 13 47 66 89 77 72 87 102 111 116 103 98 96 97 100 105 101 97 103 106 109 122 132 133 131 130 122 116 113 110 109 107 103 101 99
268 229 242 243 245 243 258 299 21 100 24 335 347 73 74 58 47 65 59 55 86 97 103 117 108 101 91 92 100 107 112 104 103 113 109 120 124 127 133 132 127 118 116 117 118 115 110 107 106
247 244 224 236 248 255 290 330 315 271 203 1 341 62 69 79 72 64 45 42 64 87 101 116 116 114 104 89 101 108 112 114 108 123 119 118 125 121 121 124 125 126 123 126 128 124 118 117 113
241 235 232 233 238 237 251 296 278 282 301 348 335 12 107 80 63 50 45 44 50 74 94 114 118 121 115 102 105 111 111 127 121 130 129 123 125 127 129 130 125 125 133 136 138 134 129 126 119
256 242 248 257 254 251 282 333 327 343 339 0 350 15 103 63 49 39 45 47 53 67 83 98 122 132 122 116 117 107 103 114 143 162 141 127 120 130 138 137 136 135 136 137 139 143 140 135 132
307 289 258 255 251 257 345 358 1 360 360 8 5 12 97 41 15 23 46 46 51 58 68 81 82 90 113 155 142 114 107 102 118 170 130 113 118 135 146 144 144 138 137 130 128 148 151 146 146
292 259 256 267 271 306 35 8 354 355 350 3 31 31 50 42 16 25 41 43 42 43 43 53 66 69 90 156 135 137 157 160 128 131 114 119 154 152 152 150 138 140 142 147 151 154 162 156 160
222 232 249 315 339 2 22 4 349 331 299 283 350 59 90 73 38 29 28 22 35 30 24 38 43 40 46 147 113 177 180 172 160 156 164 171 156 150 151 153 155 160 163 166 173 171 163 170 178
236 239 282 341 351 350 332 334 332 294 296 294 308 37 23 55 40 30 29 25 15 13 27 27 26 23 24 67 155 162 186 180 173 165 165 170 145 137 137 147 159 165 172 168 171 173 200 199 186
245 272 284 303 329 331 310 301 306 288 288 335 16 52 22 34 31 16 12 0 7 3 24 25 17 12 10 10 210 184 188 179 175 167 178 190 160 163 160 164 180 178 184 180 182 205 218 216 194
231 249 265 289 309 314 310 287 280 282 292 306 330 126 124 24 29 4 359 353 1 357 5 21 16 9 2 2 273 230 202 200 192 177 193 191 187 187 182 183 186 197 192 186 201 215 214 223 213
208 247 262 263 264 270 281 285 275 268 254 258 220 214 155 138 327 339 356 349 352 352 355 5 9 356 1 359 326 260 226 199 211 195 196 199 200 195 184 196 190 205 193 197 208 218 216 227 213
225 255 263 245 240 245 273 285 251 247 221 223 215 193 165 181 250 294 331 330 335 340 346 345 345 352 349 338 318 312 267 212 216 220 205 201 203 199 187 195 198 205 199 207 214 228 217 226 224
233 244 253 234 224 211 228 266 252 221 208 216 207 199 186 195 242 271 329 326 334 330 332 328 342 346 326 324 314 313 293 273 248 248 237 213 206 203 188 188 208 210 196 198 205 208 214 223 230
219 235 233 234 226 219 224 259 255 232 217 225 219 210 205 197 225 245 255 315 317 302 300 312 314 323 315 313 313 327 302 279 287 268 251 245 221 205 194 194 210 203 198 202 214 212 195 207 235
240 254 253 229 223 269 257 262 264 253 230 229 225 213 211 208 212 204 190 275 290 285 292 307 303 315 312 303 307 340 329 306 307 297 270 253 230 214 199 202 207 199 197 212 205 214 215 204 208
281 287 281 273 267 276 260 265 265 250 237 238 231 217 216 220 191 163 170 245 284 284 285 307 301 307 327 323 309 294 289 287 289 279 294 275 238 221 208 221 206 197 210 221 214 209 210 215 188
261 271 275 277 269 279 273 272 268 249 234 220 220 219 216 240 285 251 186 211 251 270 293 307 297 289 287 279 282 264 264 262 254 269 280 287 278 246 237 209 210 209 223 237 231 211 213 226 200
246 250 271 284 301 267 271 277 241 218 218 212 208 208 202 202 244 264 272 249 267 266 274 281 274 274 273 271 279 296 303 289 296 289 286 291 287 269 264 244 216 208 206 231 236 227 222 215 230
258 277 276 285 297 276 252 284 249 213 219 223 218 204 230 231 238 247 253 254 257 262 269 275 271 272 262 245 229 230 245 256 273 271 277 293 284 285 322 281 252 242 225 242 249 252 248 218 225
263 298 273 262 265 280 244 242 263 201 228 232 220 227 245 249 257 254 241 238 257 255 275 285 285 275 263 243 224 226 240 256 271 263 268 292 302 287 274 285 227 241 250 249 257 262 249 231 229
278 272 250 239 247 256 229 214 260 209 225 230 246 254 272 272 265 288 264 241 266 244 249 262 273 273 266 244 223 218 227 238 243 263 273 288 303 302 296 292 247 240 243 248 255 256 256 249 244
232 203 344 259 230 242 196 213 249 195 93 127 205 314 338 316 332 336 322 288 264 265 269 260 263 276 265 252 236 228 229 228 225 230 226 246 266 277 267 281 248 243 239 242 249 252 252 246 242
216 231 199 244 266 288 232 235 236 112 81 51 59 18 358 342 339 325 311 287 271 269 268 266 258 265 257 248 237 228 229 223 224 229 217 228 231 241 251 269 254 244 244 252 248 248 250 242 241
232 224 263 253 277 273 243 226 220 119 78 32 15 2 341 336 338 325 312 299 284 275 265 259 260 259 252 258 248 227 228 224 224 241 228 229 242 246 245 247 270 271 265 264 254 247 257 247 242
260 286 209 196 260 277 266 227 217 186 237 348 348 333 324 325 325 319 308 301 289 282 274 267 257 241 235 248 251 256 236 227 218 231 242 256 248 234 225 240 249 268 272 278 277 272 270 273 259
197 211 226 246 253 254 286 279 62 136 123 2 334 336 337 335 327 319 308 300 292 293 290 277 263 247 231 228 237 236 230 237 223 232 251 241 235 230 226 246 253 260 261 261 259 269 272 272 280
231 218 194 201 250 230 260 274 32 61 63 20 343 333 334 328 322 319 317 314 303 293 292 276 262 251 231 233 238 228 200 211 225 234 238 210 235 267 254 269 268 277 276 267 254 277 275 267 273